Location: The Saddle
(36.8333°N, 80.3417°W)
Time: 01:16:40
(UTC-04:00)

Tiros 1 despin weight - Visible Passes

Search period start: 06 June 2026 00:00
Search period end: 16 June 2026 00:00
Orbit: 555 x 591 km, 48.2° (Epoch: 1 June)

Date Brightness Start Highest point End Pass type
(mag) Time Alt. Az. Time Alt. Az. Time Alt. Az.
6 Jun ? 00:24:16 10° NW 00:27:19 18° N 00:30:21 10° NE visible
6 Jun ? 02:05:22 10° NW 02:08:58 25° NNE 02:12:32 10° ENE visible
6 Jun ? 03:45:37 10° NW 03:49:57 87° NE 03:54:12 10° SE visible
6 Jun ? 05:27:42 10° W 05:29:58 14° SW 05:32:12 10° SSW visible
6 Jun ? 21:02:20 10° SW 21:06:44 86° SE 21:11:07 10° NE visible
6 Jun ? 22:43:58 10° WNW 22:47:40 26° NNW 22:51:22 10° NE visible
7 Jun ? 00:26:16 10° NW 00:29:18 18° N 00:32:19 10° NE visible
7 Jun ? 02:06:58 10° NW 02:10:51 31° NNE 02:14:41 10° E visible
7 Jun ? 03:47:21 10° WNW 03:52:47 42° SSE 03:55:47 10° SE visible
7 Jun ? 21:04:04 10° WSW 21:08:26 64° NNW 21:12:47 10° NE visible
7 Jun ? 22:46:08 10° WNW 22:49:35 22° NNW 22:53:01 10° NE visible
8 Jun ? 00:28:08 10° NW 00:31:16 19° N 00:34:25 10° NE visible
8 Jun ? 02:08:34 10° NW 02:11:50 36° N 02:11:50 36° N visible
8 Jun ? 21:05:57 10° W 21:10:10 44° NNW 21:14:23 10° NE visible
8 Jun ? 22:48:19 10° NW 22:51:31 20° N 22:54:44 10° NE visible
9 Jun ? 00:29:53 10° NW 00:33:14 21° NNE 00:35:52 13° NE visible
9 Jun ? 02:10:10 10° NW 02:11:54 23° NW 02:11:54 23° NW visible
9 Jun ? 21:07:59 10° W 21:11:58 33° NNW 21:15:58 10° NE visible
9 Jun ? 22:50:24 10° NW 22:53:29 18° N 22:56:34 10° NE visible
10 Jun ? 00:31:32 10° NW 00:35:09 25° NNE 00:36:25 21° NE visible
10 Jun ? 02:11:47 10° NW 02:12:28 14° NW 02:12:28 14° NW visible
10 Jun ? 21:10:05 10° WNW 21:13:49 26° NNW 21:17:34 10° NE visible
10 Jun ? 22:52:24 10° NW 22:55:28 18° N 22:58:31 10° NE visible
11 Jun ? 00:33:07 10° NW 00:37:01 31° NNE 00:37:12 30° NNE visible
11 Jun ? 21:12:14 10° WNW 21:15:43 22° NNW 21:19:11 10° NE visible
11 Jun ? 22:54:15 10° NW 22:57:25 19° N 23:00:34 10° NE visible
12 Jun ? 00:34:41 10° NW 00:38:06 37° N 00:38:06 37° N visible
12 Jun ? 21:14:23 10° WNW 21:17:38 20° N 21:20:53 10° NE visible
12 Jun ? 22:55:58 10° NW 22:59:21 21° NNE 23:02:42 10° ENE visible
13 Jun ? 00:36:15 10° NW 00:39:06 37° NNW 00:39:06 37° NNW visible
13 Jun ? 21:16:28 10° NW 21:19:34 18° N 21:22:40 10° NE visible
13 Jun ? 22:57:36 10° NW 23:01:14 25° NNE 23:04:04 14° ENE visible
14 Jun ? 00:37:52 10° NW 00:40:09 30° NW 00:40:09 30° NW visible
14 Jun ? 21:18:26 10° NW 21:21:31 18° N 21:24:36 10° NE visible
14 Jun ? 22:59:10 10° NW 23:03:05 30° NNE 23:05:10 20° ENE visible
15 Jun ? 00:39:32 10° WNW 00:41:15 23° WNW 00:41:15 23° WNW visible
15 Jun ? 21:20:16 10° NW 21:23:27 19° N 21:26:37 10° NE visible
15 Jun ? 23:00:43 10° NW 23:04:52 40° NNE 23:06:19 30° ENE visible
